Time,TemperatureF,DewpointF,PressureIn,WindDirection,WindDirectionDegrees,WindSpeedMPH,WindSpeedGustMPH,Humidity,HourlyPrecipIn,Conditions,Clouds,dailyrainin,SolarRadiationWatts/m^2,SoftwareType,DateUTC
2013-04-10 00:00:00,45.6,40.7,29.91,East,101,6.0,9.0,83,0.00,,OVC021,0.00,0.00,VWS V14.01,2013-04-10 04:00:00,
2013-04-10 00:05:00,45.5,40.7,29.92,ESE,115,11.0,12.0,83,0.00,,OVC021,0.00,0.00,VWS V14.01,2013-04-10 04:05:00,
2013-04-10 00:10:00,45.6,40.7,29.91,SE,128,6.0,11.0,83,0.00,,OVC021,0.00,0.00,VWS V14.01,2013-04-10 04:10:00,
2013-04-10 00:15:00,45.6,40.7,29.90,SE,143,7.0,9.0,83,0.00,,OVC021,0.00,0.00,VWS V14.01,2013-04-10 04:15:00,
2013-04-10 00:20:00,45.5,40.7,29.92,SE,128,5.0,11.0,83,0.00,,OVC021,0.00,0.00,VWS V14.01,2013-04-10 04:20:00,
2013-04-10 00:25:00,45.4,40.5,29.90,ENE,78,4.0,12.0,83,0.00,,OVC021,0.00,0.00,VWS V14.01,2013-04-10 04:25:00,
2013-04-10 00:30:00,45.3,40.5,29.89,East,95,7.0,11.0,83,0.00,,OVC021,0.00,0.00,VWS V14.01,2013-04-10 04:30:00,
2013-04-10 00:35:00,45.3,40.5,29.88,SE,133,11.0,12.0,83,0.00,,OVC021,0.00,0.00,VWS V14.01,2013-04-10 04:35:00,
2013-04-10 00:40:00,45.3,40.5,29.89,SE,136,9.0,11.0,83,0.00,,OVC021,0.00,0.00,VWS V14.01,2013-04-10 04:40:00,
2013-04-10 00:45:00,45.3,40.5,29.91,SSE,159,5.0,12.0,83,0.00,,OVC021,0.00,0.00,VWS V14.01,2013-04-10 04:45:00,
2013-04-10 00:50:00,45.4,40.2,29.91,SSE,154,4.0,11.0,82,0.00,,OVC021,0.00,0.00,VWS V14.01,2013-04-10 04:50:00,
2013-04-10 00:55:00,45.5,40.3,29.90,SSE,153,5.0,11.0,82,0.00,,OVC021,0.00,0.00,VWS V14.01,2013-04-10 04:55:00,
2013-04-10 01:00:00,45.5,40.3,29.90,SSE,167,5.0,8.0,82,0.00,,OVC021,0.00,0.00,VWS V14.01,2013-04-10 05:00:00,
2013-04-10 01:05:00,45.6,40.4,29.91,SSE,157,6.0,8.0,82,0.00,,OVC021,0.00,0.00,VWS V14.01,2013-04-10 05:05:00,
2013-04-10 01:10:00,45.6,40.1,29.92,SE,139,6.0,10.0,81,0.00,,OVC021,0.00,0.00,VWS V14.01,2013-04-10 05:10:00,
2013-04-10 01:15:00,45.8,40.3,29.91,SSE,168,1.0,11.0,81,0.00,,OVC021,0.00,0.00,VWS V14.01,2013-04-10 05:15:00,
2013-04-10 01:20:00,45.8,40.3,29.91,SSE,162,1.0,7.0,81,0.00,,OVC021,0.00,0.00,VWS V14.01,2013-04-10 05:20:00,
2013-04-10 01:25:00,45.9,40.4,29.92,SSE,165,2.0,6.0,81,0.00,,OVC021,0.00,0.00,VWS V14.01,2013-04-10 05:25:00,
2013-04-10 01:30:00,46.0,40.5,29.91,South,173,4.0,6.0,81,0.00,,OVC021,0.00,0.00,VWS V14.01,2013-04-10 05:30:00,
2013-04-10 01:35:00,46.0,40.5,29.91,SSE,165,2.0,7.0,81,0.00,,OVC021,0.00,0.00,VWS V14.01,2013-04-10 05:35:00,
2013-04-10 01:40:00,46.0,40.5,29.92,South,186,5.0,5.0,81,0.00,,OVC021,0.00,0.00,VWS V14.01,2013-04-10 05:40:00,
2013-04-10 01:45:00,46.1,40.6,29.92,South,184,0.0,6.0,81,0.00,,OVC021,0.00,0.00,VWS V14.01,2013-04-10 05:45:00,
2013-04-10 01:50:00,46.1,40.3,29.93,South,177,2.0,2.0,80,0.00,,OVC021,0.00,0.00,VWS V14.01,2013-04-10 05:50:00,
2013-04-10 01:55:00,46.1,40.3,29.92,SE,126,5.0,5.0,80,0.00,,OVC021,0.00,0.00,VWS V14.01,2013-04-10 05:55:00,
2013-04-10 02:00:00,46.0,40.2,29.91,ESE,117,4.0,6.0,80,0.00,,OVC021,0.00,0.00,VWS V14.01,2013-04-10 06:00:00,
2013-04-10 02:05:00,46.0,40.2,29.92,East,100,2.0,6.0,80,0.00,,OVC021,0.00,0.00,VWS V14.01,2013-04-10 06:05:00,
2013-04-10 02:10:00,46.0,40.2,29.92,East,100,0.0,4.0,80,0.00,,OVC021,0.00,0.00,VWS V14.01,2013-04-10 06:10:00,
2013-04-10 02:15:00,46.0,40.2,29.92,East,100,0.0,1.0,80,0.00,,OVC021,0.00,0.00,VWS V14.01,2013-04-10 06:15:00,
2013-04-10 02:20:00,46.0,40.2,29.94,East,100,0.0,1.0,80,0.00,,OVC021,0.00,0.00,VWS V14.01,2013-04-10 06:20:00,
2013-04-10 02:25:00,46.0,40.2,29.92,East,100,1.0,2.0,80,0.00,,OVC021,0.00,0.00,VWS V14.01,2013-04-10 06:25:00,
2013-04-10 02:30:00,46.0,40.2,29.92,East,100,0.0,1.0,80,0.00,,OVC021,0.00,0.00,VWS V14.01,2013-04-10 06:30:00,
2013-04-10 02:35:00,46.0,40.2,29.93,East,99,0.0,1.0,80,0.00,,OVC021,0.00,0.00,VWS V14.01,2013-04-10 06:35:00,
2013-04-10 02:40:00,46.0,40.5,29.92,East,100,2.0,2.0,81,0.00,,OVC021,0.00,0.00,VWS V14.01,2013-04-10 06:40:00,
2013-04-10 02:45:00,46.0,40.2,29.93,East,100,1.0,4.0,80,0.00,,OVC021,0.00,0.00,VWS V14.01,2013-04-10 06:45:00,
2013-04-10 02:50:00,46.0,40.5,29.93,NNE,17,2.0,4.0,81,0.00,,OVC021,0.00,0.00,VWS V14.01,2013-04-10 06:50:00,
2013-04-10 02:55:00,46.0,40.8,29.94,North,360,1.0,4.0,82,0.00,,OVC021,0.00,0.00,VWS V14.01,2013-04-10 06:55:00,
2013-04-10 03:00:00,46.0,40.8,29.94,North,360,0.0,3.0,82,0.00,,OVC021,0.00,0.00,VWS V14.01,2013-04-10 07:00:00,
2013-04-10 03:05:00,45.8,40.9,29.93,North,360,0.0,2.0,83,0.00,,OVC021,0.00,0.00,VWS V14.01,2013-04-10 07:05:00,
2013-04-10 03:10:00,45.6,41.0,29.94,North,360,1.0,3.0,84,0.00,,OVC021,0.00,0.00,VWS V14.01,2013-04-10 07:10:00,
2013-04-10 03:15:00,45.5,41.3,29.97,NNW,330,3.0,4.0,85,0.00,,OVC021,0.00,0.00,VWS V14.01,2013-04-10 07:15:00,
2013-04-10 03:20:00,45.3,41.1,29.97,NNW,343,1.0,5.0,85,0.01,,OVC021,0.01,0.00,VWS V14.01,2013-04-10 07:20:00,
2013-04-10 03:25:00,45.1,41.5,29.96,NNW,344,2.0,4.0,87,0.01,,OVC021,0.01,0.00,VWS V14.01,2013-04-10 07:25:00,
2013-04-10 03:30:00,45.0,41.4,29.97,NNW,345,0.0,4.0,87,0.01,,OVC021,0.01,0.00,VWS V14.01,2013-04-10 07:30:00,
2013-04-10 03:35:00,44.9,41.6,29.94,North,5,0.0,4.0,88,0.01,,OVC021,0.01,0.00,VWS V14.01,2013-04-10 07:35:00,
2013-04-10 03:40:00,44.7,41.4,29.95,North,5,0.0,1.0,88,0.01,,OVC021,0.01,0.00,VWS V14.01,2013-04-10 07:40:00,
2013-04-10 03:45:00,44.6,41.6,29.94,NNE,26,3.0,3.0,89,0.02,,OVC021,0.02,0.00,VWS V14.01,2013-04-10 07:45:00,
2013-04-10 03:50:00,44.5,41.5,29.92,ESE,103,2.0,5.0,89,0.02,,OVC021,0.02,0.00,VWS V14.01,2013-04-10 07:50:00,
2013-04-10 03:55:00,44.4,41.7,29.90,ESE,118,6.0,6.0,90,0.02,,OVC021,0.02,0.00,VWS V14.01,2013-04-10 07:55:00,
2013-04-10 04:00:00,44.2,41.5,29.90,SE,134,4.0,8.0,90,0.03,,OVC021,0.03,0.00,VWS V14.01,2013-04-10 08:00:00,
2013-04-10 04:05:00,44.2,41.7,29.88,SE,140,7.0,7.0,91,0.03,,OVC021,0.03,0.00,VWS V14.01,2013-04-10 08:05:00,
2013-04-10 04:10:00,44.0,41.5,29.88,SSE,149,6.0,8.0,91,0.03,,OVC021,0.03,0.00,VWS V14.01,2013-04-10 08:10:00,
2013-04-10 04:15:00,44.0,41.5,29.89,SE,145,2.0,7.0,91,0.03,,OVC021,0.03,0.00,VWS V14.01,2013-04-10 08:15:00,
2013-04-10 04:20:00,44.1,41.7,29.89,SSE,166,6.0,7.0,91,0.03,,OVC021,0.03,0.00,VWS V14.01,2013-04-10 08:20:00,
2013-04-10 04:25:00,44.1,41.7,29.88,SSE,165,2.0,6.0,91,0.03,,OVC021,0.04,0.00,VWS V14.01,2013-04-10 08:25:00,
2013-04-10 04:30:00,44.1,41.7,29.89,SSE,165,0.0,4.0,91,0.03,,OVC021,0.04,0.00,VWS V14.01,2013-04-10 08:30:00,
2013-04-10 04:35:00,44.1,41.7,29.89,SSE,163,0.0,5.0,91,0.03,,OVC021,0.04,0.00,VWS V14.01,2013-04-10 08:35:00,
2013-04-10 04:40:00,44.0,41.5,29.88,SSE,162,0.0,2.0,91,0.03,,OVC021,0.04,0.00,VWS V14.01,2013-04-10 08:40:00,
2013-04-10 04:45:00,44.0,41.5,29.88,SSE,163,0.0,1.0,91,0.03,,OVC021,0.04,0.00,VWS V14.01,2013-04-10 08:45:00,
2013-04-10 04:50:00,44.0,41.5,29.88,SSE,163,0.0,2.0,91,0.03,,OVC021,0.05,0.00,VWS V14.01,2013-04-10 08:50:00,
2013-04-10 04:55:00,44.0,41.5,29.88,SSE,163,4.0,4.0,91,0.03,,OVC021,0.05,0.00,VWS V14.01,2013-04-10 08:55:00,
2013-04-10 05:00:00,44.0,41.8,29.87,SSE,163,0.0,4.0,92,0.03,,OVC021,0.05,0.00,VWS V14.01,2013-04-10 09:00:00,
2013-04-10 05:05:00,44.1,41.9,29.86,SSE,162,4.0,6.0,92,0.02,,OVC021,0.05,0.00,VWS V14.01,2013-04-10 09:05:00,
2013-04-10 05:10:00,44.2,42.0,29.86,SSE,157,2.0,7.0,92,0.02,,OVC021,0.05,0.00,VWS V14.01,2013-04-10 09:10:00,
2013-04-10 05:15:00,44.1,41.9,29.86,SSE,157,0.0,4.0,92,0.02,,OVC021,0.05,0.00,VWS V14.01,2013-04-10 09:15:00,
2013-04-10 05:20:00,44.1,41.9,29.86,SSE,157,2.0,5.0,92,0.02,,OVC021,0.05,0.00,VWS V14.01,2013-04-10 09:20:00,
2013-04-10 05:25:00,44.1,41.9,29.86,SSE,157,0.0,4.0,92,0.03,,OVC021,0.06,0.00,VWS V14.01,2013-04-10 09:25:00,
2013-04-10 05:30:00,44.1,41.9,29.87,SSE,157,0.0,5.0,92,0.02,,OVC021,0.06,0.00,VWS V14.01,2013-04-10 09:30:00,
2013-04-10 05:35:00,44.1,41.9,29.87,SSE,157,0.0,1.0,92,0.02,,OVC021,0.06,0.00,VWS V14.01,2013-04-10 09:35:00,
2013-04-10 05:40:00,44.1,41.9,29.86,SSE,157,1.0,2.0,92,0.02,,OVC021,0.06,0.00,VWS V14.01,2013-04-10 09:40:00,
2013-04-10 05:45:00,44.1,41.9,29.88,SSE,157,2.0,2.0,92,0.02,,OVC021,0.06,0.00,VWS V14.01,2013-04-10 09:45:00,
2013-04-10 05:50:00,44.1,41.9,29.86,SSE,157,1.0,2.0,92,0.02,,OVC021,0.06,0.00,VWS V14.01,2013-04-10 09:50:00,
2013-04-10 05:55:00,44.1,41.9,29.85,SSE,157,2.0,4.0,92,0.01,,OVC021,0.06,0.00,VWS V14.01,2013-04-10 09:55:00,
2013-04-10 06:00:00,44.1,41.9,29.87,SSE,157,0.0,4.0,92,0.01,,OVC021,0.06,0.00,VWS V14.01,2013-04-10 10:00:00,
2013-04-10 06:05:00,44.1,41.9,29.86,SSE,157,0.0,1.0,92,0.01,,OVC021,0.06,0.00,VWS V14.01,2013-04-10 10:05:00,
2013-04-10 06:10:00,44.1,41.9,29.85,SSE,157,0.0,0.0,92,0.01,,OVC021,0.06,0.00,VWS V14.01,2013-04-10 10:10:00,
2013-04-10 06:15:00,44.1,41.9,29.88,SSE,157,0.0,0.0,92,0.01,,OVC021,0.06,0.00,VWS V14.01,2013-04-10 10:15:00,
2013-04-10 06:20:00,44.1,42.2,29.87,SSE,157,2.0,2.0,93,0.01,,OVC021,0.06,0.00,VWS V14.01,2013-04-10 10:20:00,
2013-04-10 06:25:00,44.2,42.3,29.86,SSE,157,0.0,4.0,93,0.01,,OVC021,0.06,0.00,VWS V14.01,2013-04-10 10:25:00,
2013-04-10 06:30:00,44.2,42.3,29.87,SSE,157,0.0,1.0,93,0.00,,OVC021,0.06,0.00,VWS V14.01,2013-04-10 10:30:00,
2013-04-10 06:35:00,44.2,42.3,29.87,SSE,157,0.0,0.0,93,0.00,,OVC021,0.06,0.00,VWS V14.01,2013-04-10 10:35:00,
2013-04-10 06:40:00,44.2,42.3,29.87,SSE,157,0.0,1.0,93,0.00,,OVC021,0.06,5.00,VWS V14.01,2013-04-10 10:40:00,
2013-04-10 06:45:00,44.4,42.5,29.88,SSE,157,2.0,4.0,93,0.00,,OVC021,0.06,7.00,VWS V14.01,2013-04-10 10:45:00,
2013-04-10 06:50:00,44.5,42.6,29.88,SSE,157,5.0,5.0,93,0.00,,OVC021,0.06,9.00,VWS V14.01,2013-04-10 10:50:00,
2013-04-10 06:55:00,44.5,42.6,29.88,SSE,155,4.0,5.0,93,0.00,,OVC021,0.06,14.00,VWS V14.01,2013-04-10 10:55:00,
2013-04-10 07:00:00,44.5,42.6,29.89,SSE,153,0.0,6.0,93,0.00,,OVC021,0.06,14.00,VWS V14.01,2013-04-10 11:00:00,
2013-04-10 07:01:00,44.5,42.6,29.90,SSE,153,1.0,2.0,93,0.00,,OVC021,0.06,16.00,VWS V14.01,2013-04-10 11:01:00,
2013-04-10 07:03:00,44.5,42.6,29.88,SSE,153,4.0,4.0,93,0.00,,OVC021,0.06,18.00,VWS V14.01,2013-04-10 11:03:00,
2013-04-10 07:05:00,44.5,42.6,29.90,SSE,153,2.0,4.0,93,0.00,,OVC021,0.06,18.00,VWS V14.01,2013-04-10 11:05:00,
2013-04-10 07:06:00,44.5,42.6,29.88,SSE,153,2.0,4.0,93,0.00,,OVC021,0.06,21.00,VWS V14.01,2013-04-10 11:06:00,
2013-04-10 07:10:00,44.5,42.6,29.88,SSE,153,0.0,4.0,93,0.00,,OVC021,0.06,21.00,VWS V14.01,2013-04-10 11:10:00,
2013-04-10 07:12:00,44.5,42.6,29.89,SSE,153,0.0,2.0,93,0.00,,OVC021,0.06,23.00,VWS V14.01,2013-04-10 11:12:00,
2013-04-10 07:15:00,44.4,42.5,29.89,SSE,153,0.0,2.0,93,0.00,,OVC021,0.06,25.00,VWS V14.01,2013-04-10 11:15:00,
2013-04-10 07:17:00,44.5,42.6,29.90,SSE,153,0.0,1.0,93,0.00,,OVC021,0.06,28.00,VWS V14.01,2013-04-10 11:17:00,
2013-04-10 07:20:00,44.5,42.6,29.90,SSE,153,0.0,1.0,93,0.00,,OVC021,0.06,30.00,VWS V14.01,2013-04-10 11:20:00,
2013-04-10 07:22:00,44.5,42.6,29.88,SSE,153,0.0,1.0,93,0.00,,OVC021,0.06,37.00,VWS V14.01,2013-04-10 11:22:00,
2013-04-10 07:25:00,44.5,42.6,29.88,SSE,153,0.0,1.0,93,0.00,,OVC021,0.06,39.00,VWS V14.01,2013-04-10 11:25:00,
2013-04-10 07:27:00,44.5,42.6,29.88,SSE,153,0.0,0.0,93,0.00,,OVC021,0.06,53.00,VWS V14.01,2013-04-10 11:27:00,
2013-04-10 07:30:00,44.5,42.6,29.88,SSE,153,0.0,0.0,93,0.00,,OVC021,0.06,53.00,VWS V14.01,2013-04-10 11:30:00,
2013-04-10 07:32:00,44.5,42.6,29.88,SSE,153,0.0,0.0,93,0.00,,OVC021,0.06,62.00,VWS V14.01,2013-04-10 11:32:00,
2013-04-10 07:35:00,44.5,42.6,29.88,SSE,153,0.0,0.0,93,0.00,,OVC021,0.06,62.00,VWS V14.01,2013-04-10 11:35:00,
2013-04-10 07:38:00,44.5,42.6,29.89,SSE,153,0.0,1.0,93,0.00,,OVC021,0.06,58.00,VWS V14.01,2013-04-10 11:38:00,
2013-04-10 07:40:00,44.5,42.6,29.89,SSE,153,0.0,1.0,93,0.00,,OVC021,0.06,58.00,VWS V14.01,2013-04-10 11:40:00,
2013-04-10 07:43:00,44.6,42.4,29.90,SSE,153,2.0,2.0,92,0.00,,OVC021,0.06,67.00,VWS V14.01,2013-04-10 11:43:00,
2013-04-10 07:45:00,44.6,42.4,29.90,SSE,153,2.0,2.0,92,0.00,,OVC021,0.06,67.00,VWS V14.01,2013-04-10 11:45:00,
2013-04-10 07:48:00,44.7,42.5,29.89,SSE,153,2.0,5.0,92,0.00,,OVC021,0.06,79.00,VWS V14.01,2013-04-10 11:48:00,
2013-04-10 07:50:00,44.7,42.5,29.89,SSE,153,2.0,5.0,92,0.00,,OVC021,0.06,79.00,VWS V14.01,2013-04-10 11:50:00,
2013-04-10 07:53:00,44.9,42.7,29.89,SSE,153,0.0,5.0,92,0.00,,OVC021,0.06,88.00,VWS V14.01,2013-04-10 11:53:00,
2013-04-10 07:55:00,44.9,42.7,29.89,SSE,153,0.0,5.0,92,0.00,,OVC021,0.06,88.00,VWS V14.01,2013-04-10 11:55:00,
2013-04-10 07:58:00,45.1,43.2,29.89,SSE,153,0.0,4.0,93,0.00,,OVC021,0.06,118.00,VWS V14.01,2013-04-10 11:58:00,
2013-04-10 08:00:00,45.1,43.2,29.89,SSE,153,0.0,4.0,93,0.00,,OVC021,0.06,118.00,VWS V14.01,2013-04-10 12:00:00,
2013-04-10 08:03:00,45.4,43.5,29.89,SSE,153,1.0,2.0,93,0.00,,OVC021,0.06,121.00,VWS V14.01,2013-04-10 12:03:00,
2013-04-10 08:05:00,45.4,43.5,29.89,SSE,153,1.0,2.0,93,0.00,,OVC021,0.06,121.00,VWS V14.01,2013-04-10 12:05:00,
2013-04-10 08:08:00,45.4,43.2,29.89,SSE,153,0.0,1.0,92,0.00,,OVC021,0.06,125.00,VWS V14.01,2013-04-10 12:08:00,
2013-04-10 08:10:00,45.4,43.2,29.90,SSE,153,1.0,4.0,92,0.00,,OVC021,0.06,125.00,VWS V14.01,2013-04-10 12:10:00,
2013-04-10 08:13:00,45.3,43.1,29.88,SSE,153,0.0,2.0,92,0.00,,OVC021,0.06,144.00,VWS V14.01,2013-04-10 12:13:00,
2013-04-10 08:15:00,45.3,43.1,29.88,SSE,153,0.0,2.0,92,0.00,,OVC021,0.06,144.00,VWS V14.01,2013-04-10 12:15:00,
2013-04-10 08:18:00,45.4,43.2,29.89,SSE,153,0.0,2.0,92,0.00,,OVC021,0.06,165.00,VWS V14.01,2013-04-10 12:18:00,
2013-04-10 08:20:00,45.4,43.2,29.89,SSE,153,0.0,2.0,92,0.00,,OVC021,0.06,165.00,VWS V14.01,2013-04-10 12:20:00,
2013-04-10 08:23:00,45.6,43.1,29.89,SSE,153,0.0,0.0,91,0.00,,OVC021,0.06,132.00,VWS V14.01,2013-04-10 12:23:00,
2013-04-10 08:25:00,45.6,43.1,29.89,SSE,153,0.0,1.0,91,0.00,,OVC021,0.06,132.00,VWS V14.01,2013-04-10 12:25:00,
2013-04-10 08:28:00,45.8,43.3,29.91,SSE,153,0.0,0.0,91,0.00,,OVC021,0.06,111.00,VWS V14.01,2013-04-10 12:28:00,
2013-04-10 08:30:00,45.8,43.3,29.91,SSE,153,0.0,1.0,91,0.00,,OVC021,0.06,111.00,VWS V14.01,2013-04-10 12:30:00,
2013-04-10 08:33:00,45.9,43.4,29.90,SSE,153,2.0,2.0,91,0.00,,OVC021,0.06,105.00,VWS V14.01,2013-04-10 12:33:00,
2013-04-10 08:35:00,45.9,43.4,29.90,SSE,153,1.0,2.0,91,0.00,,OVC021,0.06,105.00,VWS V14.01,2013-04-10 12:35:00,
2013-04-10 08:38:00,46.0,43.2,29.90,SSE,153,2.0,4.0,90,0.00,,OVC021,0.06,109.00,VWS V14.01,2013-04-10 12:38:00,
2013-04-10 08:40:00,46.1,43.3,29.90,SSE,153,2.0,4.0,90,0.00,,OVC021,0.06,102.00,VWS V14.01,2013-04-10 12:40:00,
2013-04-10 08:43:00,46.2,43.4,29.89,SSE,153,0.0,0.0,90,0.00,,OVC021,0.06,146.00,VWS V14.01,2013-04-10 12:43:00,
2013-04-10 08:45:00,46.2,43.4,29.90,SSE,153,0.0,4.0,90,0.00,,OVC021,0.06,142.00,VWS V14.01,2013-04-10 12:45:00,
2013-04-10 08:48:00,46.3,43.5,29.89,SSE,153,0.0,0.0,90,0.00,,OVC021,0.06,137.00,VWS V14.01,2013-04-10 12:48:00,
2013-04-10 08:50:00,46.3,43.5,29.89,SSE,153,0.0,0.0,90,0.00,,OVC021,0.06,141.00,VWS V14.01,2013-04-10 12:50:00,
2013-04-10 08:54:00,46.5,43.7,29.89,SSE,165,1.0,4.0,90,0.00,,OVC021,0.06,158.00,VWS V14.01,2013-04-10 12:54:00,
2013-04-10 08:55:00,46.4,43.6,29.89,SSE,165,0.0,2.0,90,0.00,,OVC021,0.06,153.00,VWS V14.01,2013-04-10 12:55:00,
2013-04-10 08:59:00,46.5,43.7,29.90,SSE,151,2.0,5.0,90,0.00,,OVC021,0.06,155.00,VWS V14.01,2013-04-10 12:59:00,
2013-04-10 09:00:00,46.5,43.7,29.90,SSE,164,4.0,4.0,90,0.00,,OVC021,0.06,160.00,VWS V14.01,2013-04-10 13:00:00,
2013-04-10 09:04:00,46.7,43.9,29.90,NNE,13,5.0,5.0,90,0.00,,OVC021,0.06,135.00,VWS V14.01,2013-04-10 13:04:00,
2013-04-10 09:05:00,46.7,43.9,29.90,North,5,1.0,5.0,90,0.00,,OVC021,0.06,135.00,VWS V14.01,2013-04-10 13:05:00,
2013-04-10 09:09:00,46.7,43.6,29.90,NNE,21,4.0,6.0,89,0.00,,OVC021,0.06,151.00,VWS V14.01,2013-04-10 13:09:00,
2013-04-10 09:10:00,46.6,43.5,29.90,NNE,23,2.0,5.0,89,0.00,,OVC021,0.06,144.00,VWS V14.01,2013-04-10 13:10:00,
2013-04-10 09:14:00,46.9,44.1,29.89,NNE,27,3.0,4.0,90,0.00,,OVC021,0.06,202.00,VWS V14.01,2013-04-10 13:14:00,
2013-04-10 09:15:00,46.8,43.7,29.90,NNE,20,2.0,6.0,89,0.00,,OVC021,0.06,183.00,VWS V14.01,2013-04-10 13:15:00,
2013-04-10 09:19:00,47.2,44.4,29.90,NE,34,3.0,5.0,90,0.00,,OVC021,0.06,221.00,VWS V14.01,2013-04-10 13:19:00,
2013-04-10 09:20:00,47.0,43.9,29.90,NE,34,2.0,4.0,89,0.00,,OVC021,0.06,225.00,VWS V14.01,2013-04-10 13:20:00,
2013-04-10 09:24:00,47.3,44.2,29.90,NE,34,5.0,5.0,89,0.00,,OVC021,0.06,264.00,VWS V14.01,2013-04-10 13:24:00,
2013-04-10 09:25:00,47.2,44.1,29.90,NNE,33,3.0,5.0,89,0.00,,OVC021,0.06,232.00,VWS V14.01,2013-04-10 13:25:00,
2013-04-10 09:29:00,47.4,44.0,29.91,ENE,61,3.0,7.0,88,0.00,,OVC021,0.06,301.00,VWS V14.01,2013-04-10 13:29:00,
2013-04-10 09:30:00,47.4,44.3,29.90,NNE,26,4.0,6.0,89,0.00,,OVC021,0.06,283.00,VWS V14.01,2013-04-10 13:30:00,
2013-04-10 09:35:00,47.6,44.2,29.90,North,355,6.0,7.0,88,0.00,,OVC021,0.06,269.00,VWS V14.01,2013-04-10 13:35:00,
2013-04-10 09:40:00,47.7,44.3,29.91,NNE,25,2.0,7.0,88,0.00,,OVC021,0.06,232.00,VWS V14.01,2013-04-10 13:40:00,
2013-04-10 09:45:00,47.8,44.1,29.91,North,360,5.0,7.0,87,0.00,,OVC021,0.06,267.00,VWS V14.01,2013-04-10 13:45:00,
2013-04-10 09:50:00,47.8,44.1,29.91,NNE,23,6.0,7.0,87,0.00,,OVC021,0.06,262.00,VWS V14.01,2013-04-10 13:50:00,
2013-04-10 09:55:00,47.6,43.6,29.91,NE,38,3.0,7.0,86,0.00,,OVC021,0.06,179.00,VWS V14.01,2013-04-10 13:55:00,
2013-04-10 10:00:00,47.5,43.5,29.91,North,11,4.0,7.0,86,0.00,,OVC021,0.06,220.00,VWS V14.01,2013-04-10 14:00:00,
2013-04-10 10:01:00,47.6,43.9,29.91,NNW,346,3.0,6.0,87,0.00,,OVC021,0.06,281.00,VWS V14.01,2013-04-10 14:01:00,
2013-04-10 10:05:00,47.8,44.1,29.91,NNE,23,2.0,6.0,87,0.00,,OVC021,0.06,239.00,VWS V14.01,2013-04-10 14:05:00,
2013-04-10 10:07:00,48.0,44.0,29.92,NE,48,3.0,5.0,86,0.00,,OVC021,0.06,278.00,VWS V14.01,2013-04-10 14:07:00,
2013-04-10 10:10:00,48.0,44.0,29.92,NE,47,4.0,5.0,86,0.01,,OVC021,0.07,230.00,VWS V14.01,2013-04-10 14:10:00,
2013-04-10 10:12:00,48.1,44.1,29.91,ENE,65,3.0,5.0,86,0.01,,OVC021,0.07,313.00,VWS V14.01,2013-04-10 14:12:00,
2013-04-10 10:15:00,48.1,43.8,29.91,ENE,67,3.0,5.0,85,0.01,,OVC021,0.07,338.00,VWS V14.01,2013-04-10 14:15:00,
2013-04-10 10:17:00,48.1,43.8,29.91,ENE,61,0.0,6.0,85,0.01,,OVC021,0.07,431.00,VWS V14.01,2013-04-10 14:17:00,
2013-04-10 10:20:00,48.2,43.9,29.91,ENE,61,0.0,6.0,85,0.01,,OVC021,0.07,388.00,VWS V14.01,2013-04-10 14:20:00,
2013-04-10 10:22:00,48.6,44.0,29.91,ENE,61,0.0,2.0,84,0.01,,OVC021,0.07,311.00,VWS V14.01,2013-04-10 14:22:00,
2013-04-10 10:25:00,48.7,44.1,29.91,ENE,61,0.0,2.0,84,0.01,,OVC021,0.07,336.00,VWS V14.01,2013-04-10 14:25:00,
2013-04-10 10:27:00,48.9,43.7,29.90,ENE,76,2.0,4.0,82,0.01,,OVC021,0.07,410.00,VWS V14.01,2013-04-10 14:27:00,
2013-04-10 10:30:00,48.9,43.7,29.90,ENE,76,2.0,4.0,82,0.01,,OVC021,0.07,410.00,VWS V14.01,2013-04-10 14:30:00,
2013-04-10 10:32:00,49.1,44.2,29.90,East,80,1.0,4.0,83,0.01,,OVC021,0.07,461.00,VWS V14.01,2013-04-10 14:32:00,
2013-04-10 10:35:00,49.1,44.2,29.90,East,80,1.0,4.0,83,0.01,,OVC021,0.07,461.00,VWS V14.01,2013-04-10 14:35:00,
2013-04-10 10:38:00,49.5,44.2,29.90,ENE,71,2.0,5.0,82,0.01,,OVC021,0.07,408.00,VWS V14.01,2013-04-10 14:38:00,
2013-04-10 10:40:00,49.5,44.2,29.90,ENE,71,2.0,5.0,82,0.01,,OVC021,0.07,408.00,VWS V14.01,2013-04-10 14:40:00,
2013-04-10 10:43:00,49.6,44.0,29.90,East,82,4.0,5.0,81,0.01,,OVC021,0.07,390.00,VWS V14.01,2013-04-10 14:43:00,
2013-04-10 10:45:00,49.6,44.0,29.90,East,82,4.0,5.0,81,0.01,,OVC021,0.07,390.00,VWS V14.01,2013-04-10 14:45:00,
2013-04-10 10:48:00,49.6,43.7,29.90,ENE,71,1.0,3.0,80,0.01,,OVC021,0.07,476.00,VWS V14.01,2013-04-10 14:48:00,
2013-04-10 10:50:00,49.6,43.7,29.90,ENE,71,2.0,6.0,80,0.01,,OVC021,0.07,513.00,VWS V14.01,2013-04-10 14:50:00,
2013-04-10 10:53:00,49.7,44.4,29.91,East,92,5.0,7.0,82,0.01,,OVC021,0.07,311.00,VWS V14.01,2013-04-10 14:53:00,
2013-04-10 10:55:00,49.7,44.4,29.91,East,88,5.0,7.0,82,0.01,,OVC021,0.07,339.00,VWS V14.01,2013-04-10 14:55:00,
2013-04-10 10:58:00,49.9,44.3,29.92,ENE,61,4.0,5.0,81,0.01,,OVC021,0.07,234.00,VWS V14.01,2013-04-10 14:58:00,
2013-04-10 11:00:00,49.9,44.3,29.92,ENE,61,3.0,8.0,81,0.01,,OVC021,0.07,250.00,VWS V14.01,2013-04-10 15:00:00,
2013-04-10 11:03:00,50.0,44.4,29.92,NNW,348,1.0,3.0,81,0.01,,OVC021,0.07,267.00,VWS V14.01,2013-04-10 15:03:00,
2013-04-10 11:05:00,50.0,44.7,29.92,NNW,348,3.0,6.0,82,0.01,,OVC021,0.07,267.00,VWS V14.01,2013-04-10 15:05:00,
2013-04-10 11:08:00,50.2,44.6,29.92,NE,35,5.0,5.0,81,0.00,,OVC021,0.07,313.00,VWS V14.01,2013-04-10 15:08:00,
2013-04-10 11:10:00,50.1,44.5,29.92,NE,37,3.0,5.0,81,0.01,,OVC021,0.07,313.00,VWS V14.01,2013-04-10 15:10:00,
2013-04-10 11:13:00,50.4,44.8,29.92,NE,46,3.0,4.0,81,0.00,,OVC021,0.07,207.00,VWS V14.01,2013-04-10 15:13:00,
2013-04-10 11:15:00,50.3,44.7,29.92,NNE,31,2.0,5.0,81,0.00,,OVC021,0.07,207.00,VWS V14.01,2013-04-10 15:15:00,
2013-04-10 11:18:00,50.2,44.3,29.93,ENE,71,2.0,3.0,80,0.00,,OVC021,0.07,172.00,VWS V14.01,2013-04-10 15:18:00,
2013-04-10 11:20:00,50.2,44.3,29.93,ENE,71,3.0,6.0,80,0.00,,OVC021,0.07,172.00,VWS V14.01,2013-04-10 15:20:00,
2013-04-10 11:23:00,50.3,44.4,29.92,ENE,71,0.0,0.0,80,0.00,,OVC021,0.07,163.00,VWS V14.01,2013-04-10 15:23:00,
2013-04-10 11:25:00,50.3,44.4,29.93,ENE,71,0.0,3.0,80,0.00,,OVC021,0.07,163.00,VWS V14.01,2013-04-10 15:25:00,
2013-04-10 11:28:00,50.4,44.5,29.92,NNW,334,4.0,6.0,80,0.00,,OVC021,0.07,188.00,VWS V14.01,2013-04-10 15:28:00,
2013-04-10 11:30:00,50.4,44.5,29.93,NNW,348,5.0,5.0,80,0.00,,OVC021,0.07,183.00,VWS V14.01,2013-04-10 15:30:00,
2013-04-10 11:34:00,50.4,44.1,29.92,NNW,335,3.0,4.0,79,0.00,,OVC021,0.07,214.00,VWS V14.01,2013-04-10 15:34:00,
2013-04-10 11:35:00,50.4,44.5,29.92,NNW,335,3.0,6.0,80,0.00,,OVC021,0.07,216.00,VWS V14.01,2013-04-10 15:35:00,
2013-04-10 11:39:00,50.4,44.5,29.92,WNW,294,4.0,5.0,80,0.00,,OVC021,0.07,241.00,VWS V14.01,2013-04-10 15:39:00,
2013-04-10 11:40:00,50.4,44.1,29.92,NW,306,5.0,5.0,79,0.00,,OVC021,0.07,239.00,VWS V14.01,2013-04-10 15:40:00,
2013-04-10 11:44:00,50.6,44.7,29.92,WNW,294,0.0,0.0,80,0.00,,OVC021,0.07,267.00,VWS V14.01,2013-04-10 15:44:00,
2013-04-10 11:45:00,50.5,44.6,29.92,WNW,294,0.0,5.0,80,0.00,,OVC021,0.07,265.00,VWS V14.01,2013-04-10 15:45:00,
2013-04-10 11:49:00,50.8,44.5,29.91,North,9,1.0,4.0,79,0.00,,OVC021,0.07,309.00,VWS V14.01,2013-04-10 15:49:00,
2013-04-10 11:50:00,50.8,44.5,29.92,NNW,335,4.0,4.0,79,0.00,,OVC021,0.07,292.00,VWS V14.01,2013-04-10 15:50:00,
2013-04-10 11:54:00,51.0,44.7,29.92,NNE,28,3.0,4.0,79,0.00,,OVC021,0.07,388.00,VWS V14.01,2013-04-10 15:54:00,
2013-04-10 11:55:00,51.0,44.7,29.91,NNE,12,2.0,4.0,79,0.00,,OVC021,0.07,357.00,VWS V14.01,2013-04-10 15:55:00,
2013-04-10 12:00:00,51.2,44.6,29.92,NNE,28,0.0,1.0,78,0.00,,OVC021,0.07,345.00,VWS V14.01,2013-04-10 16:00:00,
2013-04-10 12:05:00,51.3,44.7,29.91,SSE,149,0.0,6.0,78,0.00,,OVC021,0.07,357.00,VWS V14.01,2013-04-10 16:05:00,
2013-04-10 12:10:00,51.6,44.6,29.91,SSE,150,1.0,1.0,77,0.00,,OVC021,0.07,434.00,VWS V14.01,2013-04-10 16:10:00,
2013-04-10 12:15:00,52.1,45.1,29.91,SSE,150,2.0,6.0,77,0.00,,OVC021,0.07,455.00,VWS V14.01,2013-04-10 16:15:00,
2013-04-10 12:20:00,52.1,45.1,29.90,SSE,158,4.0,6.0,77,0.00,,OVC021,0.07,591.00,VWS V14.01,2013-04-10 16:20:00,
2013-04-10 12:25:00,52.4,45.1,29.91,SSE,159,0.0,1.0,76,0.00,,OVC021,0.07,673.00,VWS V14.01,2013-04-10 16:25:00,
2013-04-10 12:30:00,52.8,45.8,29.91,SE,130,1.0,4.0,77,0.00,,OVC021,0.07,547.00,VWS V14.01,2013-04-10 16:30:00,
2013-04-10 12:31:00,53.5,46.5,29.91,SE,140,4.0,6.0,77,0.00,,OVC021,0.07,670.00,VWS V14.01,2013-04-10 16:31:00,
2013-04-10 12:35:00,53.8,46.1,29.92,SE,139,0.0,6.0,75,0.00,,OVC021,0.07,501.00,VWS V14.01,2013-04-10 16:35:00,
2013-04-10 12:36:00,54.1,46.0,29.92,SE,137,4.0,4.0,74,0.00,,OVC021,0.07,529.00,VWS V14.01,2013-04-10 16:36:00,
2013-04-10 12:40:00,54.2,46.1,29.92,SE,142,2.0,5.0,74,0.00,,OVC021,0.07,538.00,VWS V14.01,2013-04-10 16:40:00,
2013-04-10 12:42:00,54.1,45.7,29.92,SSE,167,4.0,7.0,73,0.00,,OVC021,0.07,526.00,VWS V14.01,2013-04-10 16:42:00,
2013-04-10 12:45:00,54.1,45.7,29.92,South,170,2.0,7.0,73,0.00,,OVC021,0.07,545.00,VWS V14.01,2013-04-10 16:45:00,
2013-04-10 12:47:00,54.1,45.7,29.91,South,170,0.0,5.0,73,0.00,,OVC021,0.07,508.00,VWS V14.01,2013-04-10 16:47:00,
2013-04-10 12:50:00,54.2,45.8,29.91,SSE,166,4.0,5.0,73,0.00,,OVC021,0.07,526.00,VWS V14.01,2013-04-10 16:50:00,
2013-04-10 12:52:00,54.9,46.4,29.91,SW,225,2.0,6.0,73,0.00,,OVC021,0.07,466.00,VWS V14.01,2013-04-10 16:52:00,
2013-04-10 12:55:00,55.0,46.5,29.91,SW,226,1.0,6.0,73,0.00,,OVC021,0.07,473.00,VWS V14.01,2013-04-10 16:55:00,
2013-04-10 12:58:00,55.4,46.2,29.92,SSW,194,0.0,7.0,71,0.00,,OVC021,0.07,471.00,VWS V14.01,2013-04-10 16:58:00,
2013-04-10 13:00:00,55.4,46.2,29.92,SSW,194,0.0,7.0,71,0.00,,OVC021,0.07,510.00,VWS V14.01,2013-04-10 17:00:00,
2013-04-10 13:03:00,55.7,46.1,29.91,SSW,211,5.0,5.0,70,0.00,,OVC021,0.07,404.00,VWS V14.01,2013-04-10 17:03:00,
2013-04-10 13:05:00,55.7,46.1,29.91,SSW,211,4.0,5.0,70,0.00,,OVC021,0.07,418.00,VWS V14.01,2013-04-10 17:05:00,
2013-04-10 13:08:00,55.6,46.0,29.91,WSW,248,1.0,9.0,70,0.00,,OVC021,0.07,441.00,VWS V14.01,2013-04-10 17:08:00,
2013-04-10 13:10:00,55.6,46.0,29.91,WSW,248,1.0,9.0,70,0.00,,OVC021,0.07,441.00,VWS V14.01,2013-04-10 17:10:00,
2013-04-10 13:13:00,55.9,46.3,29.91,SW,233,4.0,4.0,70,0.00,,OVC021,0.07,870.00,VWS V14.01,2013-04-10 17:13:00,
2013-04-10 13:15:00,55.9,46.3,29.91,SW,233,4.0,4.0,70,0.00,,OVC021,0.07,870.00,VWS V14.01,2013-04-10 17:15:00,
2013-04-10 13:18:00,56.3,46.3,29.91,South,185,3.0,8.0,69,0.00,,OVC021,0.07,571.00,VWS V14.01,2013-04-10 17:18:00,
2013-04-10 13:20:00,56.3,46.3,29.91,South,186,3.0,8.0,69,0.00,,OVC021,0.07,571.00,VWS V14.01,2013-04-10 17:20:00,
2013-04-10 13:23:00,56.6,46.6,29.91,NNW,335,5.0,7.0,69,0.00,,OVC021,0.07,475.00,VWS V14.01,2013-04-10 17:23:00,
2013-04-10 13:25:00,56.6,46.6,29.91,NNW,335,5.0,7.0,69,0.00,,OVC021,0.07,475.00,VWS V14.01,2013-04-10 17:25:00,
2013-04-10 13:28:00,56.8,46.4,29.91,South,178,5.0,8.0,68,0.00,,OVC021,0.07,464.00,VWS V14.01,2013-04-10 17:28:00,
2013-04-10 13:30:00,56.8,46.4,29.91,South,178,5.0,8.0,68,0.00,,OVC021,0.07,464.00,VWS V14.01,2013-04-10 17:30:00,
2013-04-10 13:33:00,57.1,46.7,29.89,West,259,5.0,5.0,68,0.00,,OVC021,0.07,441.00,VWS V14.01,2013-04-10 17:33:00,
2013-04-10 13:35:00,57.1,46.7,29.90,West,267,5.0,6.0,68,0.00,,OVC021,0.07,441.00,VWS V14.01,2013-04-10 17:35:00,
2013-04-10 13:38:00,57.2,46.4,29.90,WSW,257,1.0,2.0,67,0.00,,OVC021,0.07,410.00,VWS V14.01,2013-04-10 17:38:00,
2013-04-10 13:40:00,57.3,46.5,29.90,WSW,257,1.0,7.0,67,0.00,,OVC021,0.07,418.00,VWS V14.01,2013-04-10 17:40:00,
2013-04-10 13:43:00,57.2,46.4,29.90,SW,235,0.0,1.0,67,0.00,,OVC021,0.07,359.00,VWS V14.01,2013-04-10 17:43:00,
2013-04-10 13:45:00,57.2,46.4,29.90,SW,234,0.0,7.0,67,0.00,,OVC021,0.07,374.00,VWS V14.01,2013-04-10 17:45:00,
2013-04-10 13:48:00,57.5,46.6,29.89,West,279,4.0,4.0,67,0.00,,OVC021,0.07,206.00,VWS V14.01,2013-04-10 17:48:00,
2013-04-10 13:50:00,57.5,46.6,29.90,West,277,4.0,7.0,67,0.00,,OVC021,0.07,257.00,VWS V14.01,2013-04-10 17:50:00,
2013-04-10 13:53:00,57.9,46.2,29.89,SW,235,5.0,5.0,65,0.00,,OVC021,0.07,221.00,VWS V14.01,2013-04-10 17:53:00,
2013-04-10 13:55:00,57.9,46.2,29.89,WSW,239,4.0,9.0,65,0.00,,OVC021,0.07,223.00,VWS V14.01,2013-04-10 17:55:00,
2013-04-10 13:58:00,57.4,46.2,29.90,NNE,13,3.0,5.0,66,0.00,,OVC021,0.07,223.00,VWS V14.01,2013-04-10 17:58:00,
2013-04-10 14:00:00,57.4,45.8,29.90,North,5,5.0,10.0,65,0.00,,OVC021,0.07,223.00,VWS V14.01,2013-04-10 18:00:00,
2013-04-10 14:04:00,57.6,46.3,29.90,NW,313,5.0,9.0,66,0.00,,OVC021,0.07,193.00,VWS V14.01,2013-04-10 18:04:00,
2013-04-10 14:05:00,57.6,46.7,29.89,WNW,301,9.0,9.0,67,0.00,,OVC021,0.07,204.00,VWS V14.01,2013-04-10 18:05:00,
2013-04-10 14:09:00,58.1,46.8,29.89,NW,315,4.0,7.0,66,0.00,,OVC021,0.07,206.00,VWS V14.01,2013-04-10 18:09:00,
2013-04-10 14:10:00,57.9,46.6,29.89,NW,309,6.0,9.0,66,0.00,,OVC021,0.07,211.00,VWS V14.01,2013-04-10 18:10:00,
2013-04-10 14:14:00,58.5,46.8,29.90,WNW,296,6.0,8.0,65,0.00,,OVC021,0.07,220.00,VWS V14.01,2013-04-10 18:14:00,
2013-04-10 14:15:00,58.4,46.7,29.89,NW,323,5.0,7.0,65,0.00,,OVC021,0.07,214.00,VWS V14.01,2013-04-10 18:15:00,
2013-04-10 14:19:00,58.7,47.0,29.90,North,355,2.0,4.0,65,0.00,,OVC021,0.07,244.00,VWS V14.01,2013-04-10 18:19:00,
2013-04-10 14:20:00,58.6,46.9,29.90,NW,320,2.0,8.0,65,0.00,,OVC021,0.07,260.00,VWS V14.01,2013-04-10 18:20:00,
2013-04-10 14:24:00,58.9,46.8,29.90,West,270,2.0,6.0,64,0.00,,OVC021,0.07,267.00,VWS V14.01,2013-04-10 18:24:00,
2013-04-10 14:25:00,58.8,46.7,29.90,North,350,1.0,5.0,64,0.00,,OVC021,0.07,246.00,VWS V14.01,2013-04-10 18:25:00,
2013-04-10 14:29:00,58.8,46.7,29.91,WSW,253,1.0,5.0,64,0.00,,OVC021,0.07,309.00,VWS V14.01,2013-04-10 18:29:00,
2013-04-10 14:30:00,58.8,46.7,29.91,WNW,300,2.0,6.0,64,0.00,,OVC021,0.07,290.00,VWS V14.01,2013-04-10 18:30:00,
2013-04-10 14:34:00,59.4,47.7,29.90,WNW,302,4.0,7.0,65,0.00,,OVC021,0.07,367.00,VWS V14.01,2013-04-10 18:34:00,
2013-04-10 14:35:00,59.1,47.0,29.90,WSW,256,2.0,5.0,64,0.00,,OVC021,0.07,575.00,VWS V14.01,2013-04-10 18:35:00,
2013-04-10 14:40:00,59.4,46.8,29.89,WNW,289,0.0,5.0,63,0.00,,OVC021,0.07,243.00,VWS V14.01,2013-04-10 18:40:00,
2013-04-10 14:45:00,59.3,46.7,29.89,NE,55,3.0,5.0,63,0.00,,OVC021,0.07,190.00,VWS V14.01,2013-04-10 18:45:00,
2013-04-10 14:50:00,59.0,46.8,29.88,ENE,73,3.0,5.0,64,0.00,,OVC021,0.07,267.00,VWS V14.01,2013-04-10 18:50:00,
2013-04-10 14:55:00,58.9,46.8,29.88,East,79,0.0,3.0,64,0.00,,OVC021,0.07,216.00,VWS V14.01,2013-04-10 18:55:00,
2013-04-10 15:00:00,59.2,47.5,29.87,NNW,342,2.0,5.0,65,0.00,,OVC021,0.07,327.00,VWS V14.01,2013-04-10 19:00:00,
2013-04-10 15:05:00,59.2,47.0,29.87,NNE,12,3.0,6.0,64,0.00,,OVC021,0.07,272.00,VWS V14.01,2013-04-10 19:05:00,
2013-04-10 15:06:00,59.2,47.0,29.87,North,355,6.0,6.0,64,0.00,,OVC021,0.07,239.00,VWS V14.01,2013-04-10 19:06:00,
2013-04-10 15:10:00,59.1,46.5,29.87,NNE,26,6.0,7.0,63,0.00,,OVC021,0.07,250.00,VWS V14.01,2013-04-10 19:10:00,
2013-04-10 15:11:00,58.9,46.8,29.87,NE,44,2.0,7.0,64,0.00,,OVC021,0.07,185.00,VWS V14.01,2013-04-10 19:11:00,
2013-04-10 15:15:00,58.8,46.7,29.87,NE,45,0.0,7.0,64,0.00,,OVC021,0.07,155.00,VWS V14.01,2013-04-10 19:15:00,
2013-04-10 15:16:00,58.7,46.6,29.88,NNE,32,1.0,5.0,64,0.00,,OVC021,0.07,127.00,VWS V14.01,2013-04-10 19:16:00,
2013-04-10 15:20:00,58.7,46.6,29.88,NE,36,3.0,5.0,64,0.00,,OVC021,0.07,104.00,VWS V14.01,2013-04-10 19:20:00,
2013-04-10 15:21:00,58.7,46.6,29.88,NNE,28,2.0,4.0,64,0.00,,OVC021,0.07,104.00,VWS V14.01,2013-04-10 19:21:00,
2013-04-10 15:25:00,58.7,46.6,29.88,NNE,28,3.0,4.0,64,0.00,,OVC021,0.07,116.00,VWS V14.01,2013-04-10 19:25:00,
2013-04-10 15:27:00,58.8,46.7,29.87,NW,316,5.0,8.0,64,0.00,,OVC021,0.07,132.00,VWS V14.01,2013-04-10 19:27:00,
2013-04-10 15:30:00,58.9,46.8,29.87,WNW,303,4.0,8.0,64,0.00,,OVC021,0.07,128.00,VWS V14.01,2013-04-10 19:30:00,
2013-04-10 15:32:00,59.1,47.4,29.84,NW,311,2.0,5.0,65,0.00,,OVC021,0.07,251.00,VWS V14.01,2013-04-10 19:32:00,
2013-04-10 15:35:00,59.1,47.0,29.84,NW,311,1.0,5.0,64,0.00,,OVC021,0.07,292.00,VWS V14.01,2013-04-10 19:35:00,
2013-04-10 15:37:00,59.4,46.8,29.85,NE,55,5.0,5.0,63,0.00,,OVC021,0.07,394.00,VWS V14.01,2013-04-10 19:37:00,
2013-04-10 15:40:00,59.4,46.8,29.85,ENE,62,5.0,6.0,63,0.00,,OVC021,0.07,288.00,VWS V14.01,2013-04-10 19:40:00,
2013-04-10 15:42:00,59.3,47.1,29.83,East,99,9.0,11.0,64,0.00,,OVC021,0.07,464.00,VWS V14.01,2013-04-10 19:42:00,
2013-04-10 15:45:00,59.3,47.5,29.83,East,98,6.0,11.0,65,0.00,,OVC021,0.07,548.00,VWS V14.01,2013-04-10 19:45:00,
2013-04-10 15:47:00,59.6,47.0,29.83,NNE,21,1.0,11.0,63,0.00,,OVC021,0.07,635.00,VWS V14.01,2013-04-10 19:47:00,
2013-04-10 15:50:00,59.6,47.0,29.83,NNE,22,0.0,11.0,63,0.00,,OVC021,0.07,635.00,VWS V14.01,2013-04-10 19:50:00,
2013-04-10 15:52:00,59.7,47.1,29.82,NE,54,1.0,6.0,63,0.00,,OVC021,0.07,232.00,VWS V14.01,2013-04-10 19:52:00,
2013-04-10 15:55:00,59.8,47.2,29.82,NE,54,1.0,6.0,63,0.00,,OVC021,0.07,232.00,VWS V14.01,2013-04-10 19:55:00,
2013-04-10 15:57:00,60.1,47.5,29.81,SE,127,5.0,9.0,63,0.00,,OVC021,0.07,274.00,VWS V14.01,2013-04-10 19:57:00,
2013-04-10 16:00:00,60.2,47.6,29.81,SE,127,4.0,9.0,63,0.00,,OVC021,0.07,274.00,VWS V14.01,2013-04-10 20:00:00,
2013-04-10 16:03:00,59.7,47.5,29.80,ESE,113,9.0,13.0,64,0.00,,OVC021,0.07,345.00,VWS V14.01,2013-04-10 20:03:00,
2013-04-10 16:05:00,59.7,47.5,29.80,ESE,115,8.0,13.0,64,0.00,,OVC021,0.07,345.00,VWS V14.01,2013-04-10 20:05:00,
2013-04-10 16:08:00,59.3,46.7,29.81,SE,146,7.0,11.0,63,0.00,,OVC021,0.07,178.00,VWS V14.01,2013-04-10 20:08:00,
2013-04-10 16:10:00,59.3,46.7,29.81,SE,146,7.0,11.0,63,0.00,,OVC021,0.07,178.00,VWS V14.01,2013-04-10 20:10:00,
2013-04-10 16:13:00,59.3,46.7,29.81,SE,126,11.0,13.0,63,0.00,,OVC021,0.07,158.00,VWS V14.01,2013-04-10 20:13:00,
2013-04-10 16:15:00,59.3,46.7,29.81,SE,126,11.0,13.0,63,0.00,,OVC021,0.07,158.00,VWS V14.01,2013-04-10 20:15:00,
2013-04-10 16:18:00,58.5,46.4,29.82,ESE,121,9.0,14.0,64,0.00,,OVC021,0.07,144.00,VWS V14.01,2013-04-10 20:18:00,
2013-04-10 16:20:00,58.5,46.4,29.82,ESE,121,9.0,14.0,64,0.00,,OVC021,0.07,144.00,VWS V14.01,2013-04-10 20:20:00,
2013-04-10 16:23:00,57.9,46.6,29.83,SE,128,11.0,12.0,66,0.00,,OVC021,0.07,118.00,VWS V14.01,2013-04-10 20:23:00,
2013-04-10 16:25:00,57.9,46.6,29.83,SE,128,9.0,12.0,66,0.00,,OVC021,0.07,118.00,VWS V14.01,2013-04-10 20:25:00,
2013-04-10 16:28:00,57.2,46.4,29.82,ESE,109,7.0,11.0,67,0.00,,OVC021,0.07,105.00,VWS V14.01,2013-04-10 20:28:00,
2013-04-10 16:30:00,57.3,46.0,29.82,ESE,114,7.0,13.0,66,0.00,,OVC021,0.07,105.00,VWS V14.01,2013-04-10 20:30:00,
2013-04-10 16:33:00,57.0,46.2,29.82,ESE,109,7.0,9.0,67,0.00,,OVC021,0.07,93.00,VWS V14.01,2013-04-10 20:33:00,
2013-04-10 16:35:00,57.0,46.2,29.82,ESE,121,5.0,13.0,67,0.00,,OVC021,0.07,86.00,VWS V14.01,2013-04-10 20:35:00,
2013-04-10 16:39:00,56.9,46.1,29.82,East,97,7.0,9.0,67,0.00,,OVC021,0.07,102.00,VWS V14.01,2013-04-10 20:39:00,
2013-04-10 16:40:00,56.9,46.1,29.82,East,91,8.0,11.0,67,0.00,,OVC021,0.07,123.00,VWS V14.01,2013-04-10 20:40:00,
2013-04-10 16:44:00,56.7,46.3,29.83,SE,125,6.0,11.0,68,0.00,,OVC021,0.07,105.00,VWS V14.01,2013-04-10 20:44:00,
2013-04-10 16:45:00,56.7,46.3,29.83,ESE,112,6.0,9.0,68,0.00,,OVC021,0.07,95.00,VWS V14.01,2013-04-10 20:45:00,
2013-04-10 16:49:00,56.5,45.7,29.83,SE,134,8.0,8.0,67,0.00,,OVC021,0.07,70.00,VWS V14.01,2013-04-10 20:49:00,
2013-04-10 16:50:00,56.6,45.8,29.83,ESE,110,4.0,11.0,67,0.00,,OVC021,0.07,74.00,VWS V14.01,2013-04-10 20:50:00,
2013-04-10 16:54:00,56.3,45.9,29.84,ESE,108,2.0,7.0,68,0.00,,OVC021,0.07,63.00,VWS V14.01,2013-04-10 20:54:00,
2013-04-10 16:55:00,56.4,46.0,29.84,ESE,107,6.0,9.0,68,0.00,,OVC021,0.07,56.00,VWS V14.01,2013-04-10 20:55:00,
2013-04-10 16:59:00,56.3,45.9,29.84,SE,138,8.0,10.0,68,0.00,,OVC021,0.07,44.00,VWS V14.01,2013-04-10 20:59:00,
2013-04-10 17:00:00,56.3,45.9,29.84,SE,133,5.0,7.0,68,0.00,,OVC021,0.07,47.00,VWS V14.01,2013-04-10 21:00:00,
2013-04-10 17:04:00,55.8,45.4,29.85,SE,139,9.0,10.0,68,0.00,,OVC021,0.07,56.00,VWS V14.01,2013-04-10 21:04:00,
2013-04-10 17:05:00,55.9,45.5,29.84,SSE,151,5.0,10.0,68,0.00,,OVC021,0.07,53.00,VWS V14.01,2013-04-10 21:05:00,
2013-04-10 17:09:00,55.6,45.2,29.84,SE,145,5.0,7.0,68,0.00,,OVC021,0.07,54.00,VWS V14.01,2013-04-10 21:09:00,
2013-04-10 17:10:00,55.6,45.2,29.85,SE,136,6.0,10.0,68,0.00,,OVC021,0.07,60.00,VWS V14.01,2013-04-10 21:10:00,
2013-04-10 17:14:00,55.4,45.4,29.84,ESE,109,6.0,8.0,69,0.00,,OVC021,0.07,56.00,VWS V14.01,2013-04-10 21:14:00,
2013-04-10 17:15:00,55.5,45.5,29.84,ESE,119,8.0,8.0,69,0.00,,OVC021,0.07,58.00,VWS V14.01,2013-04-10 21:15:00,
2013-04-10 17:20:00,55.3,45.3,29.84,ESE,123,11.0,11.0,69,0.00,,OVC021,0.07,54.00,VWS V14.01,2013-04-10 21:20:00,
2013-04-10 17:25:00,55.3,45.3,29.84,ESE,112,6.0,9.0,69,0.00,,OVC021,0.07,47.00,VWS V14.01,2013-04-10 21:25:00,
2013-04-10 17:30:00,55.2,45.2,29.84,East,90,6.0,7.0,69,0.00,,OVC021,0.07,44.00,VWS V14.01,2013-04-10 21:30:00,
2013-04-10 17:35:00,55.0,45.4,29.84,East,79,6.0,9.0,70,0.00,,OVC021,0.07,49.00,VWS V14.01,2013-04-10 21:35:00,
2013-04-10 17:40:00,54.7,44.7,29.84,ESE,109,7.0,9.0,69,0.00,,OVC021,0.07,60.00,VWS V14.01,2013-04-10 21:40:00,
2013-04-10 17:45:00,54.4,44.5,29.84,SE,131,6.0,8.0,69,0.00,,OVC021,0.07,63.00,VWS V14.01,2013-04-10 21:45:00,
2013-04-10 17:50:00,54.3,44.7,29.84,ESE,103,6.0,8.0,70,0.00,,OVC021,0.07,65.00,VWS V14.01,2013-04-10 21:50:00,
2013-04-10 17:51:00,54.2,45.0,29.84,SE,124,8.0,8.0,71,0.00,,OVC021,0.07,69.00,VWS V14.01,2013-04-10 21:51:00,
2013-04-10 17:55:00,54.2,44.6,29.84,ESE,116,7.0,9.0,70,0.00,,OVC021,0.07,58.00,VWS V14.01,2013-04-10 21:55:00,
2013-04-10 17:56:00,54.0,44.5,29.84,ESE,113,6.0,9.0,70,0.00,,OVC021,0.07,56.00,VWS V14.01,2013-04-10 21:56:00,
2013-04-10 18:00:00,53.9,44.3,29.84,SE,136,8.0,12.0,70,0.00,,OVC021,0.07,49.00,VWS V14.01,2013-04-10 22:00:00,
2013-04-10 18:01:00,53.6,44.1,29.84,ESE,109,6.0,13.0,70,0.00,,OVC021,0.07,49.00,VWS V14.01,2013-04-10 22:01:00,
2013-04-10 18:05:00,53.5,44.0,29.83,SE,127,7.0,13.0,70,0.00,,OVC021,0.07,47.00,VWS V14.01,2013-04-10 22:05:00,
2013-04-10 18:06:00,53.3,44.2,29.82,ESE,104,7.0,11.0,71,0.00,,OVC021,0.07,49.00,VWS V14.01,2013-04-10 22:06:00,
2013-04-10 18:10:00,53.2,44.0,29.82,SE,131,8.0,11.0,71,0.00,,OVC021,0.07,53.00,VWS V14.01,2013-04-10 22:10:00,
2013-04-10 18:11:00,52.9,43.8,29.82,ESE,123,11.0,14.0,71,0.00,,OVC021,0.07,69.00,VWS V14.01,2013-04-10 22:11:00,
2013-04-10 18:15:00,52.8,43.7,29.82,ESE,108,12.0,14.0,71,0.00,,OVC021,0.07,69.00,VWS V14.01,2013-04-10 22:15:00,
2013-04-10 18:16:00,52.4,43.7,29.81,ESE,113,9.0,13.0,72,0.00,,OVC021,0.07,86.00,VWS V14.01,2013-04-10 22:16:00,
2013-04-10 18:20:00,52.3,43.5,29.81,East,100,8.0,16.0,72,0.00,,OVC021,0.07,74.00,VWS V14.01,2013-04-10 22:20:00,
2013-04-10 18:21:00,51.7,42.6,29.83,ESE,119,8.0,16.0,71,0.00,,OVC021,0.07,21.00,VWS V14.01,2013-04-10 22:21:00,
2013-04-10 18:25:00,51.5,42.4,29.83,ESE,115,11.0,16.0,71,0.00,,OVC021,0.07,18.00,VWS V14.01,2013-04-10 22:25:00,
2013-04-10 18:27:00,51.1,42.4,29.83,SE,131,11.0,13.0,72,0.00,,OVC021,0.07,12.00,VWS V14.01,2013-04-10 22:27:00,
2013-04-10 18:30:00,51.0,42.3,29.83,ESE,108,6.0,13.0,72,0.00,,OVC021,0.07,14.00,VWS V14.01,2013-04-10 22:30:00,
2013-04-10 18:32:00,50.9,42.6,29.82,ESE,114,9.0,13.0,73,0.00,,OVC021,0.07,12.00,VWS V14.01,2013-04-10 22:32:00,
2013-04-10 18:35:00,50.8,42.1,29.83,ESE,117,7.0,13.0,72,0.00,,OVC021,0.07,11.00,VWS V14.01,2013-04-10 22:35:00,
2013-04-10 18:37:00,50.6,42.3,29.82,ESE,120,11.0,11.0,73,0.00,,OVC021,0.07,7.00,VWS V14.01,2013-04-10 22:37:00,
2013-04-10 18:40:00,50.5,42.2,29.82,SE,134,6.0,11.0,73,0.00,,OVC021,0.07,5.00,VWS V14.01,2013-04-10 22:40:00,
2013-04-10 18:42:00,50.4,42.1,29.82,SE,144,5.0,9.0,73,0.00,,OVC021,0.07,0.00,VWS V14.01,2013-04-10 22:42:00,
2013-04-10 18:45:00,50.4,42.1,29.82,SE,144,5.0,9.0,73,0.00,,OVC021,0.07,0.00,VWS V14.01,2013-04-10 22:45:00,
2013-04-10 18:48:00,50.1,41.8,29.82,SE,128,8.0,13.0,73,0.00,,OVC021,0.07,0.00,VWS V14.01,2013-04-10 22:48:00,
2013-04-10 18:50:00,50.1,41.8,29.82,SE,136,9.0,13.0,73,0.00,,OVC021,0.07,0.00,VWS V14.01,2013-04-10 22:50:00,
2013-04-10 18:53:00,49.8,41.5,29.83,East,100,7.0,13.0,73,0.00,,OVC021,0.07,0.00,VWS V14.01,2013-04-10 22:53:00,
2013-04-10 18:55:00,49.8,41.5,29.83,East,100,7.0,13.0,73,0.00,,OVC021,0.07,0.00,VWS V14.01,2013-04-10 22:55:00,
2013-04-10 18:58:00,49.4,41.8,29.82,SSE,154,10.0,14.0,75,0.00,,OVC021,0.07,0.00,VWS V14.01,2013-04-10 22:58:00,
2013-04-10 19:00:00,49.4,41.8,29.82,SSE,154,10.0,14.0,75,0.00,,OVC021,0.07,0.00,VWS V14.01,2013-04-10 23:00:00,
2013-04-10 19:03:00,49.2,42.0,29.82,SE,133,9.0,11.0,76,0.00,,OVC021,0.07,0.00,VWS V14.01,2013-04-10 23:03:00,
2013-04-10 19:05:00,49.2,42.0,29.82,SE,133,9.0,11.0,76,0.00,,OVC021,0.07,0.00,VWS V14.01,2013-04-10 23:05:00,
2013-04-10 19:08:00,48.8,41.9,29.82,SE,127,2.0,11.0,77,0.00,,OVC021,0.07,0.00,VWS V14.01,2013-04-10 23:08:00,
2013-04-10 19:10:00,48.8,41.9,29.82,SE,127,2.0,11.0,77,0.00,,OVC021,0.07,0.00,VWS V14.01,2013-04-10 23:10:00,
2013-04-10 19:13:00,48.5,42.3,29.83,ESE,123,7.0,8.0,79,0.00,,OVC021,0.07,0.00,VWS V14.01,2013-04-10 23:13:00,
2013-04-10 19:15:00,48.6,42.4,29.83,ESE,122,7.0,9.0,79,0.00,,OVC021,0.07,0.00,VWS V14.01,2013-04-10 23:15:00,
2013-04-10 19:18:00,48.2,42.3,29.83,ESE,107,7.0,7.0,80,0.00,,OVC021,0.07,0.00,VWS V14.01,2013-04-10 23:18:00,
2013-04-10 19:20:00,48.2,42.3,29.83,ESE,109,5.0,8.0,80,0.00,,OVC021,0.07,0.00,VWS V14.01,2013-04-10 23:20:00,
2013-04-10 19:23:00,47.7,42.5,29.83,ESE,121,4.0,5.0,82,0.00,,OVC021,0.07,0.00,VWS V14.01,2013-04-10 23:23:00,
2013-04-10 19:25:00,47.7,42.5,29.83,ESE,123,5.0,8.0,82,0.00,,OVC021,0.07,0.00,VWS V14.01,2013-04-10 23:25:00,
2013-04-10 19:28:00,47.4,42.8,29.83,ESE,105,4.0,6.0,84,0.01,,OVC021,0.08,0.00,VWS V14.01,2013-04-10 23:28:00,
2013-04-10 19:30:00,47.5,42.9,29.83,ESE,105,5.0,7.0,84,0.00,,OVC021,0.07,0.00,VWS V14.01,2013-04-10 23:30:00,
2013-04-10 19:33:00,47.2,42.9,29.84,East,90,1.0,4.0,85,0.01,,OVC021,0.08,0.00,VWS V14.01,2013-04-10 23:33:00,
2013-04-10 19:35:00,47.3,43.0,29.84,East,90,4.0,6.0,85,0.01,,OVC021,0.08,0.00,VWS V14.01,2013-04-10 23:35:00,
2013-04-10 19:39:00,47.1,43.1,29.84,East,90,1.0,1.0,86,0.01,,OVC021,0.08,0.00,VWS V14.01,2013-04-10 23:39:00,
2013-04-10 19:40:00,47.1,43.1,29.84,East,90,0.0,4.0,86,0.01,,OVC021,0.08,0.00,VWS V14.01,2013-04-10 23:40:00,
2013-04-10 19:44:00,47.0,43.3,29.83,East,99,4.0,5.0,87,0.01,,OVC021,0.08,0.00,VWS V14.01,2013-04-10 23:44:00,
2013-04-10 19:45:00,47.0,43.0,29.83,East,97,2.0,5.0,86,0.01,,OVC021,0.08,0.00,VWS V14.01,2013-04-10 23:45:00,
2013-04-10 19:49:00,46.9,43.2,29.83,ESE,109,1.0,4.0,87,0.01,,OVC021,0.08,0.00,VWS V14.01,2013-04-10 23:49:00,
2013-04-10 19:50:00,46.9,43.2,29.83,ESE,109,2.0,5.0,87,0.01,,OVC021,0.08,0.00,VWS V14.01,2013-04-10 23:50:00,
2013-04-10 19:54:00,46.7,43.3,29.83,ESE,109,1.0,2.0,88,0.02,,OVC021,0.09,0.00,VWS V14.01,2013-04-10 23:54:00,
2013-04-10 19:55:00,46.8,43.4,29.83,ESE,109,1.0,4.0,88,0.02,,OVC021,0.09,0.00,VWS V14.01,2013-04-10 23:55:00,
2013-04-10 19:59:00,46.5,43.4,29.83,ESE,108,2.0,5.0,89,0.02,,OVC021,0.09,0.00,VWS V14.01,2013-04-10 23:59:00,
2013-04-10 20:00:00,46.6,43.5,29.83,ESE,107,0.0,5.0,89,0.02,,OVC021,0.09,0.00,VWS V14.01,2013-04-11 00:00:00,
2013-04-10 20:05:00,46.5,43.4,29.83,SSE,149,5.0,6.0,89,0.02,,OVC021,0.09,0.00,VWS V14.01,2013-04-11 00:05:00,
2013-04-10 20:10:00,46.4,43.3,29.83,SSE,149,2.0,6.0,89,0.02,,OVC021,0.09,0.00,VWS V14.01,2013-04-11 00:10:00,
2013-04-10 20:15:00,46.5,43.7,29.83,SSE,149,0.0,2.0,90,0.02,,OVC021,0.09,0.00,VWS V14.01,2013-04-11 00:15:00,
2013-04-10 20:20:00,46.5,43.7,29.84,SSE,150,0.0,1.0,90,0.03,,OVC021,0.10,0.00,VWS V14.01,2013-04-11 00:20:00,
2013-04-10 20:25:00,46.5,43.7,29.85,SSE,149,0.0,2.0,90,0.03,,OVC021,0.10,0.00,VWS V14.01,2013-04-11 00:25:00,
2013-04-10 20:30:00,46.4,43.6,29.87,SSE,150,1.0,2.0,90,0.03,,OVC021,0.10,0.00,VWS V14.01,2013-04-11 00:30:00,
2013-04-10 20:35:00,46.4,43.9,29.87,SSE,149,1.0,1.0,91,0.03,,OVC021,0.10,0.00,VWS V14.01,2013-04-11 00:35:00,
2013-04-10 20:40:00,46.6,44.1,29.85,SSE,147,2.0,6.0,91,0.03,,OVC021,0.11,0.00,VWS V14.01,2013-04-11 00:40:00,
2013-04-10 20:45:00,46.6,44.1,29.86,South,169,5.0,7.0,91,0.03,,OVC021,0.11,0.00,VWS V14.01,2013-04-11 00:45:00,
2013-04-10 20:50:00,46.5,44.0,29.86,South,169,1.0,6.0,91,0.03,,OVC021,0.11,0.00,VWS V14.01,2013-04-11 00:50:00,
2013-04-10 20:55:00,46.6,44.4,29.84,SSE,147,4.0,6.0,92,0.04,,OVC021,0.12,0.00,VWS V14.01,2013-04-11 00:55:00,
2013-04-10 21:00:00,46.7,44.5,29.84,SE,126,4.0,6.0,92,0.03,,OVC021,0.12,0.00,VWS V14.01,2013-04-11 01:00:00,
2013-04-10 21:05:00,46.7,44.5,29.85,SE,126,0.0,4.0,92,0.03,,OVC021,0.12,0.00,VWS V14.01,2013-04-11 01:05:00,
2013-04-10 21:10:00,46.8,44.6,29.85,SE,127,5.0,5.0,92,0.04,,OVC021,0.13,0.00,VWS V14.01,2013-04-11 01:10:00,
2013-04-10 21:15:00,46.9,44.7,29.83,SE,127,5.0,7.0,92,0.04,,OVC021,0.13,0.00,VWS V14.01,2013-04-11 01:15:00,
2013-04-10 21:20:00,47.0,44.8,29.84,SE,126,5.0,6.0,92,0.04,,OVC021,0.13,0.00,VWS V14.01,2013-04-11 01:20:00,
2013-04-10 21:25:00,47.1,44.9,29.85,NNW,348,4.0,6.0,92,0.03,,OVC021,0.13,0.00,VWS V14.01,2013-04-11 01:25:00,
2013-04-10 21:30:00,47.2,45.0,29.85,North,349,0.0,5.0,92,0.03,,OVC021,0.13,0.00,VWS V14.01,2013-04-11 01:30:00,
2013-04-10 21:35:00,47.3,45.1,29.85,North,349,0.0,3.0,92,0.04,,OVC021,0.14,0.00,VWS V14.01,2013-04-11 01:35:00,
2013-04-10 21:40:00,47.4,45.2,29.85,NNE,13,1.0,3.0,92,0.04,,OVC021,0.14,0.00,VWS V14.01,2013-04-11 01:40:00,
2013-04-10 21:45:00,47.4,45.2,29.84,NNE,31,4.0,4.0,92,0.03,,OVC021,0.14,0.00,VWS V14.01,2013-04-11 01:45:00,
2013-04-10 21:50:00,47.4,45.2,29.83,ENE,75,4.0,5.0,92,0.03,,OVC021,0.14,0.00,VWS V14.01,2013-04-11 01:50:00,
2013-04-10 21:55:00,47.3,45.1,29.83,ENE,75,2.0,4.0,92,0.04,,OVC021,0.15,0.00,VWS V14.01,2013-04-11 01:55:00,
2013-04-10 22:00:00,47.2,45.0,29.83,ENE,76,0.0,5.0,92,0.03,,OVC021,0.15,0.00,VWS V14.01,2013-04-11 02:00:00,
2013-04-10 22:05:00,47.3,45.1,29.83,ENE,76,0.0,2.0,92,0.03,,OVC021,0.15,0.00,VWS V14.01,2013-04-11 02:05:00,
2013-04-10 22:10:00,47.3,45.1,29.83,ENE,76,1.0,2.0,92,0.03,,OVC021,0.15,0.00,VWS V14.01,2013-04-11 02:10:00,
2013-04-10 22:15:00,47.3,45.1,29.83,ENE,76,3.0,4.0,92,0.02,,OVC021,0.15,0.00,VWS V14.01,2013-04-11 02:15:00,
2013-04-10 22:20:00,47.3,45.1,29.82,East,80,3.0,5.0,92,0.03,,OVC021,0.16,0.00,VWS V14.01,2013-04-11 02:20:00,
2013-04-10 22:25:00,47.2,45.0,29.82,East,95,4.0,6.0,92,0.03,,OVC021,0.16,0.00,VWS V14.01,2013-04-11 02:25:00,
2013-04-10 22:30:00,47.1,44.9,29.81,East,95,4.0,5.0,92,0.03,,OVC021,0.16,0.00,VWS V14.01,2013-04-11 02:30:00,
2013-04-10 22:35:00,47.1,45.2,29.82,East,96,1.0,5.0,93,0.03,,OVC021,0.16,0.00,VWS V14.01,2013-04-11 02:35:00,
2013-04-10 22:40:00,47.1,45.2,29.81,East,98,5.0,5.0,93,0.02,,OVC021,0.16,0.00,VWS V14.01,2013-04-11 02:40:00,
2013-04-10 22:45:00,47.0,45.1,29.81,East,98,4.0,6.0,93,0.03,,OVC021,0.17,0.00,VWS V14.01,2013-04-11 02:45:00,
2013-04-10 22:50:00,47.1,45.2,29.82,East,98,0.0,5.0,93,0.03,,OVC021,0.17,0.00,VWS V14.01,2013-04-11 02:50:00,
2013-04-10 22:55:00,47.1,45.2,29.82,East,98,4.0,5.0,93,0.03,,OVC021,0.17,0.00,VWS V14.01,2013-04-11 02:55:00,
2013-04-10 23:00:00,47.1,45.2,29.82,East,98,4.0,5.0,93,0.02,,OVC021,0.17,0.00,VWS V14.01,2013-04-11 03:00:00,
2013-04-10 23:05:00,47.0,45.1,29.82,East,99,2.0,4.0,93,0.02,,OVC021,0.17,0.00,VWS V14.01,2013-04-11 03:05:00,
2013-04-10 23:10:00,47.0,45.1,29.82,East,98,1.0,5.0,93,0.02,,OVC021,0.17,0.00,VWS V14.01,2013-04-11 03:10:00,
2013-04-10 23:15:00,47.0,45.1,29.82,East,98,1.0,2.0,93,0.03,,OVC021,0.18,0.00,VWS V14.01,2013-04-11 03:15:00,
2013-04-10 23:20:00,47.0,45.1,29.82,East,99,4.0,4.0,93,0.03,,OVC021,0.18,0.00,VWS V14.01,2013-04-11 03:20:00,
2013-04-10 23:25:00,46.9,45.0,29.82,East,99,1.0,4.0,93,0.02,,OVC021,0.18,0.00,VWS V14.01,2013-04-11 03:25:00,
2013-04-10 23:30:00,46.9,45.0,29.82,East,98,0.0,4.0,93,0.02,,OVC021,0.18,0.00,VWS V14.01,2013-04-11 03:30:00,
2013-04-10 23:35:00,46.9,45.0,29.83,East,98,0.0,0.0,93,0.02,,OVC021,0.18,0.00,VWS V14.01,2013-04-11 03:35:00,
2013-04-10 23:40:00,46.9,45.0,29.84,East,98,0.0,0.0,93,0.02,,OVC021,0.18,0.00,VWS V14.01,2013-04-11 03:40:00,
2013-04-10 23:45:00,46.9,45.0,29.85,East,98,0.0,0.0,93,0.02,,OVC021,0.18,0.00,VWS V14.01,2013-04-11 03:45:00,
2013-04-10 23:50:00,46.9,45.0,29.85,East,98,0.0,0.0,93,0.02,,OVC021,0.19,0.00,VWS V14.01,2013-04-11 03:50:00,
2013-04-10 23:55:00,46.9,45.0,29.84,East,98,0.0,1.0,93,0.02,,OVC021,0.19,0.00,VWS V14.01,2013-04-11 03:55:00,